Weather History for Pecos, TX

Change the Weather History Date:

Monday, October 3, 2011

  Actual Average Record
Temperature  
Mean Temperature 74 °F -  
Max Temperature 90 °F 87 °F 104 °F (1973)
Min Temperature 57 °F 54 °F 35 °F (1961)
Cooling Degree Days 8    
Growing Degree Days 24 (Base 50)    
Moisture  
Dew Point 47 °F    
Average Humidity 40    
Maximum Humidity 66    
Minimum Humidity 17    
Precipitation  
Precipitation 0.00 in - - ()
Sea Level Pressure  
Sea Level Pressure 30.13 in    
Wind  
Wind Speed 9 mph (East)    
Max Wind Speed 20 mph    
Max Gust Speed 26 mph    
Visibility 10 miles    
Events      
Averages and records for this station are not official NWS values.
T = Trace of Precipitation, MM = Missing Value Source: NWS Daily Summary

Daily Weather History Graph

Daily Weather History Graph

Search for Another Location

Airport:

Trip Planner

Search our weather history database for the weather conditions in past years. The results will help you decide how hot, cold, wet, or windy it might be!

Date:

Astronomy

Oct. 03, 2011 Rise Set
Actual Time 7:48 AM CDT 7:36 PM CDT
Civil Twilight 7:24 AM CDT 8:01 PM CDT
Nautical Twilight 6:56 AM CDT 8:29 PM CDT
Astronomical Twilight 6:28 AM CDT 8:57 PM CDT
Moon 2:29 PM CDT (10/3) 12:00 AM CDT (10/3)
Length of Visible Light 12h 36m
Length of Day
11h 47m
Waxing Crescent, 45% of the Moon is Illuminated
Oct 3
Waxing Crescent
Oct 3
First Quarter
Oct 11
Full
Oct 19
Last Quarter
Oct 26
New

Hourly Weather History & Observations

Time (CDT) Temp. Dew Point Humidity Pressure Visibility Wind Dir Wind Speed Gust Speed Precip Events Conditions
12:15 AM 74.8 °F 52.2 °F 45% 30.14 in 10.0 mi SE 11.5 mph - N/A   Clear
12:35 AM 74.3 °F 52.5 °F 46% 30.15 in 10.0 mi SE 9.2 mph - N/A   Clear
12:55 AM 73.4 °F 52.7 °F 48% 30.15 in 10.0 mi SSE 8.1 mph - N/A   Clear
1:15 AM 72.9 °F 52.7 °F 49% 30.15 in 10.0 mi SE 10.4 mph - N/A   Clear
1:35 AM 72.3 °F 52.7 °F 50% 30.14 in 10.0 mi SE 9.2 mph - N/A   Clear
1:55 AM 71.4 °F 52.5 °F 51% 30.14 in 10.0 mi SE 8.1 mph - N/A   Clear
2:15 AM 69.8 °F 52.2 °F 53% 30.14 in 10.0 mi ESE 8.1 mph - N/A   Clear
2:35 AM 68.0 °F 51.8 °F 56% 30.14 in 10.0 mi ESE 6.9 mph - N/A   Clear
3:15 AM 65.8 °F 50.9 °F 58% 30.13 in 10.0 mi ESE 6.9 mph - N/A   Clear
3:35 AM 64.9 °F 50.9 °F 60% 30.13 in 10.0 mi East 6.9 mph - N/A   Clear
3:55 AM 64.2 °F 50.5 °F 61% 30.12 in 10.0 mi East 8.1 mph - N/A   Clear
4:15 AM 63.5 °F 50.2 °F 62% 30.12 in 10.0 mi East 8.1 mph - N/A   Clear
4:35 AM 63.0 °F 50.0 °F 63% 30.12 in 10.0 mi East 8.1 mph - N/A   Clear
4:55 AM 62.2 °F 49.5 °F 63% 30.12 in 10.0 mi ENE 6.9 mph - N/A   Clear
5:15 AM 61.3 °F 49.1 °F 64% 30.13 in 10.0 mi ENE 5.8 mph - N/A   Clear
5:35 AM 61.0 °F 48.7 °F 64% 30.13 in 10.0 mi ENE 4.6 mph - N/A   Clear
6:15 AM 60.3 °F 48.2 °F 64% 30.14 in 10.0 mi ENE 6.9 mph - N/A   Clear
6:35 AM 59.9 °F 47.7 °F 64% 30.15 in 10.0 mi Calm Calm - N/A   Clear
7:15 AM 59.4 °F 47.1 °F 64% 30.15 in 10.0 mi NE 4.6 mph - N/A   Clear
7:35 AM 58.3 °F 46.8 °F 66% 30.16 in 10.0 mi NE 4.6 mph - N/A   Clear
7:55 AM 57.9 °F 46.4 °F 65% 30.17 in 10.0 mi NE 5.8 mph - N/A   Clear
8:15 AM 57.6 °F 46.0 °F 65% 30.17 in 10.0 mi NE 6.9 mph - N/A   Clear
8:35 AM 58.8 °F 46.2 °F 63% 30.18 in 10.0 mi ENE 4.6 mph - N/A   Clear
8:55 AM 61.0 °F 46.6 °F 59% 30.18 in 10.0 mi East 6.9 mph - N/A   Clear
9:15 AM 63.9 °F 47.1 °F 54% 30.18 in 10.0 mi East 5.8 mph - N/A   Clear
9:35 AM 66.0 °F 47.5 °F 51% 30.19 in 10.0 mi East 4.6 mph - N/A   Clear
10:15 AM 69.8 °F 49.1 °F 48% 30.19 in 10.0 mi East 4.6 mph - N/A   Clear
10:35 AM 71.8 °F 48.9 °F 44% 30.19 in 10.0 mi ENE 4.6 mph - N/A   Clear
10:55 AM 74.3 °F 49.3 °F 41% 30.19 in 10.0 mi ENE 5.8 mph - N/A   Clear
11:15 AM 76.5 °F 49.1 °F 38% 30.19 in 10.0 mi NE 5.8 mph - N/A   Clear
11:35 AM 78.4 °F 49.1 °F 36% 30.19 in 10.0 mi East 5.8 mph - N/A   Clear
11:55 AM 80.8 °F 49.1 °F 33% 30.18 in 10.0 mi East 6.9 mph - N/A   Clear
12:15 PM 82.6 °F 49.5 °F 31% 30.17 in 10.0 mi East 8.1 mph - N/A   Clear
12:35 PM 84.0 °F 49.8 °F 30% 30.17 in 10.0 mi ESE 11.5 mph - N/A   Clear
12:55 PM 85.6 °F 49.5 °F 29% 30.16 in 10.0 mi ESE 6.9 mph 16.1 mph N/A   Clear
1:15 PM 86.5 °F 49.1 °F 27% 30.15 in 10.0 mi SE 9.2 mph 16.1 mph N/A   Clear
1:35 PM 88.0 °F 48.0 °F 25% 30.14 in 10.0 mi SSE 9.2 mph 16.1 mph N/A   Clear
2:15 PM 88.9 °F 46.2 °F 23% 30.12 in 10.0 mi ENE 5.8 mph - N/A   Clear
2:55 PM 89.8 °F 44.2 °F 21% 30.10 in 10.0 mi SE 6.9 mph - N/A   Clear
3:15 PM 89.8 °F 43.5 °F 20% 30.09 in 10.0 mi SE 6.9 mph - N/A   Clear
3:35 PM 90.1 °F 42.4 °F 19% 30.09 in 10.0 mi East 5.8 mph 17.3 mph N/A   Clear
3:55 PM 90.1 °F 41.9 °F 19% 30.07 in 10.0 mi East 9.2 mph 17.3 mph N/A   Clear
4:15 PM 90.9 °F 41.9 °F 18% 30.07 in 10.0 mi East 9.2 mph - N/A   Clear
4:35 PM 90.5 °F 41.4 °F 18% 30.06 in 10.0 mi East 10.4 mph 19.6 mph N/A   Clear
4:55 PM 90.9 °F 40.8 °F 17% 30.06 in 10.0 mi ESE 11.5 mph 23.0 mph N/A   Clear
5:15 PM 90.7 °F 40.6 °F 17% 30.06 in 10.0 mi SE 10.4 mph - N/A   Clear
5:35 PM 90.1 °F 41.0 °F 18% 30.05 in 10.0 mi ESE 16.1 mph 21.9 mph N/A   Clear
5:55 PM 89.6 °F 41.2 °F 18% 30.05 in 10.0 mi East 18.4 mph 24.2 mph N/A   Clear
6:15 PM 88.3 °F 41.0 °F 19% 30.05 in 10.0 mi East 19.6 mph - N/A   Clear
6:35 PM 86.5 °F 41.0 °F 20% 30.06 in 10.0 mi East 17.3 mph - N/A   Clear
7:15 PM 85.3 °F 41.0 °F 21% 30.06 in 10.0 mi East 18.4 mph 25.3 mph N/A   Clear
7:35 PM 83.7 °F 41.5 °F 23% 30.07 in 10.0 mi ESE 18.4 mph 24.2 mph N/A   Clear
7:55 PM 82.4 °F 42.4 °F 24% 30.07 in 10.0 mi ESE 18.4 mph 26.5 mph N/A   Clear
8:15 PM 81.1 °F 42.8 °F 26% 30.09 in 10.0 mi ESE 17.3 mph - N/A   Clear
8:35 PM 80.1 °F 43.2 °F 27% 30.10 in 10.0 mi ESE 15.0 mph 21.9 mph N/A   Clear
8:55 PM 79.2 °F 44.4 °F 29% 30.10 in 10.0 mi ESE 16.1 mph 21.9 mph N/A   Clear
9:15 PM 78.1 °F 45.1 °F 31% 30.11 in 10.0 mi East 17.3 mph - N/A   Clear
9:35 PM 77.2 °F 45.3 °F 32% 30.12 in 10.0 mi East 15.0 mph - N/A   Clear
9:55 PM 76.5 °F 45.0 °F 33% 30.12 in 10.0 mi ESE 16.1 mph - N/A   Clear
10:15 PM 75.7 °F 44.8 °F 33% 30.13 in 10.0 mi ESE 15.0 mph - N/A   Clear
10:35 PM 74.8 °F 44.6 °F 34% 30.13 in 10.0 mi ESE 15.0 mph - N/A   Clear
10:55 PM 74.5 °F 44.6 °F 34% 30.13 in 10.0 mi ESE 13.8 mph - N/A   Clear
11:35 PM 73.4 °F 44.6 °F 36% 30.13 in 10.0 mi ESE 13.8 mph - N/A   Clear
11:55 PM 72.9 °F 44.2 °F 36% 30.13 in 10.0 mi ESE 12.7 mph - N/A   Clear